Vorticity
15 9 4 5 3 10 13 8 13 6 3 4 1 -0 -1 2 6 7 6 5 6 4 1 2 2 1 2 1 1 1 0 2 3 3 4 3 4 4 4 4 3 4 5
20 7 8 3 5 8 10 10 14 7 4 6 3 4 3 4 8 9 6 5 5 5 6 6 6 7 8 7 6 7 8 7 5 3 3 3 4 5 5 4 4 4 4
19 11 8 8 3 6 11 9 11 7 4 6 3 3 2 6 6 7 6 6 5 5 5 5 9 6 8 7 3 4 3 1 2 5 3 7 5 4 4 4 3 4 4
13 9 9 9 1 6 10 7 10 7 5 8 4 2 2 5 7 8 10 8 8 6 6 6 10 5 14 15 6 7 9 7 5 8 11 11 5 4 6 8 7 11 10
14 9 5 5 7 8 9 8 8 5 10 6 2 3 6 8 12 9 11 8 6 8 6 16 11 1 2 3 7 5 9 5 6 4 3 10 4 3 4 5 9 4 10
13 15 2 7 9 7 10 10 11 7 10 2 3 5 7 12 10 14 11 8 8 8 11 -9 8 8 16 4 -3 13 11 2 3 10 7 6 6 8 2 6 4 8 6
7 13 9 -3 4 8 10 12 11 10 4 7 4 10 8 8 8 7 9 7 4 5 8 3 4 10 8 13 7 14 2 7 6 5 4 6 3 3 11 5 9 5 10
8 9 6 4 25 7 7 14 14 5 4 5 6 8 7 6 4 6 4 4 3 3 3 4 5 3 1 7 3 14 3 3 4 2 12 5 2 7 3 8 6 7 5
12 18 25 7 -0 12 10 -3 6 5 6 7 8 9 5 5 5 2 4 12 4 1 0 3 4 3 3 0 7 3 4 7 5 5 6 -2 17 -4 3 4 7 7 7
9 22 -2 30 5 5 6 7 9 7 1 5 2 6 7 4 1 -3 22 5 5 7 6 6 1 3 4 2 -0 1 4 5 6 5 4 7 3 4 6 6 4 4 10
20 23 -6 52 8 4 3 5 11 5 -8 12 2 3 2 5 2 10 3 6 6 -0 9 15 4 -2 4 4 6 6 6 6 6 5 5 4 5 3 4 3 5 3 4
16 15 20 4 23 28 13 -0 14 0 -13 58 -4 -13 1 9 -6 4 16 -4 5 9 7 9 12 10 3 5 6 8 8 7 6 4 3 3 3 5 4 3 4 4 3
16 15 15 16 26 -8 -1 43 -4 7 7 -7 3 17 18 41 16 13 9 7 7 8 5 3 7 10 8 11 10 10 9 8 5 4 2 2 3 4 5 4 3 3 5
14 17 19 -2 21 13 17 -15 -14 54 -2 -40 25 -9 7 1 11 7 10 -0 3 6 6 7 7 7 9 8 7 8 9 7 5 4 3 2 4 5 6 5 5 4 6
16 16 14 12 0 40 -9 27 9 16 60 8 -37 -11 13 2 7 10 2 7 7 7 9 10 9 9 9 10 9 8 9 7 5 5 4 3 6 6 4 4 8 9 8
13 13 16 13 9 13 21 34 9 33 21 15 -23 22 13 8 -1 16 4 8 7 7 8 8 9 9 9 8 8 9 8 7 6 6 7 5 4 6 7 8 10 10 11
10 9 14 13 17 15 8 3 17 24 33 -10 29 22 28 7 20 1 5 7 5 6 6 7 9 9 8 8 8 8 7 7 6 6 6 7 7 8 7 7 7 7 6
9 10 8 9 11 11 15 19 11 9 16 24 -5 15 17 25 14 -5 4 8 4 5 5 7 8 8 8 9 8 9 9 9 9 9 9 8 9 7 7 7 6 9 14
13 10 8 8 9 7 6 11 13 14 13 12 16 17 14 8 7 19 13 7 7 5 5 7 7 7 9 11 11 11 12 13 12 12 12 11 10 8 13 7 10 7 6
15 14 15 11 8 7 9 9 9 9 11 15 8 16 14 13 17 8 16 8 7 7 7 7 8 7 9 9 9 8 6 6 7 7 7 9 9 10 8 9 3 6 11
13 13 15 15 14 12 10 10 10 8 7 8 11 12 10 12 9 13 14 8 8 9 9 9 8 8 8 8 7 7 7 6 5 7 8 10 11 11 9 7 6 9 12
15 15 14 16 18 17 15 12 10 10 11 10 8 7 9 10 11 10 10 11 8 10 9 7 7 7 8 8 8 7 7 7 7 6 5 7 8 7 12 4 6 9 9
12 13 15 14 14 16 16 16 19 15 10 9 11 11 10 7 8 9 9 10 11 11 5 9 9 7 7 8 7 7 8 6 6 5 5 9 6 6 5 21 6 6 13
9 10 11 12 14 14 15 16 17 17 17 17 15 11 9 11 12 12 11 10 11 11 9 8 9 9 9 9 7 7 6 5 5 6 7 8 8 7 10 17 14 13 15
10 9 10 10 11 11 11 13 13 16 15 17 16 18 19 16 14 12 10 10 11 11 11 13 9 5 8 8 8 8 9 9 7 8 9 11 9 6 7 7 15 3 1
9 9 8 9 9 10 11 12 11 12 12 13 15 16 15 16 16 17 20 15 13 12 11 10 9 12 11 10 10 10 8 9 11 10 8 7 7 8 19 21 6 13 10
Height
3058 3065 3073 3081 3088 3095 3100 3107 3114 3120 3126 3131 3136 3142 3148 3152 3156 3160 3164 3167 3171 3174 3178 3182 3185 3188 3190 3193 3196 3198 3201 3202 3203 3205 3206 3207 3208 3209 3210 3211 3211 3212 3212
3053 3060 3067 3074 3082 3089 3095 3102 3109 3116 3121 3128 3133 3140 3145 3149 3153 3156 3161 3166 3169 3173 3176 3179 3183 3186 3189 3191 3194 3196 3199 3201 3203 3204 3206 3207 3209 3209 3210 3210 3211 3211 3212
3046 3054 3061 3069 3075 3082 3088 3096 3103 3111 3117 3123 3129 3133 3139 3144 3148 3153 3158 3163 3167 3170 3174 3177 3180 3183 3186 3189 3192 3194 3197 3199 3201 3203 3205 3205 3207 3208 3209 3209 3210 3210 3210
3039 3048 3055 3062 3069 3075 3083 3090 3097 3104 3111 3118 3123 3129 3135 3140 3145 3150 3154 3158 3164 3167 3171 3174 3177 3180 3183 3186 3189 3191 3194 3196 3198 3200 3202 3203 3205 3205 3207 3208 3208 3209 3209
3032 3040 3048 3055 3063 3069 3077 3084 3091 3098 3105 3112 3119 3125 3130 3136 3141 3145 3150 3155 3160 3165 3169 3171 3174 3178 3181 3183 3186 3188 3191 3193 3195 3197 3199 3200 3202 3203 3204 3204 3206 3206 3207
3025 3033 3041 3048 3055 3063 3070 3077 3085 3093 3100 3107 3114 3119 3125 3130 3136 3140 3145 3150 3155 3160 3164 3169 3172 3175 3178 3180 3183 3185 3187 3190 3192 3194 3197 3199 3200 3201 3202 3203 3203 3203 3204
3018 3026 3034 3041 3050 3057 3065 3071 3079 3087 3093 3101 3108 3114 3120 3125 3131 3137 3141 3146 3150 3155 3160 3165 3169 3173 3176 3178 3180 3183 3186 3188 3190 3192 3195 3196 3197 3198 3199 3200 3200 3201 3201
3012 3019 3026 3036 3044 3051 3059 3067 3073 3079 3087 3095 3101 3108 3115 3120 3127 3132 3137 3142 3147 3152 3156 3161 3165 3169 3172 3175 3177 3180 3183 3185 3188 3190 3192 3193 3194 3195 3196 3197 3198 3198 3198
3006 3013 3021 3026 3035 3045 3052 3058 3067 3074 3082 3090 3097 3103 3109 3115 3121 3127 3132 3137 3143 3148 3152 3157 3161 3165 3168 3171 3174 3177 3180 3183 3185 3187 3189 3190 3191 3191 3193 3194 3194 3195 3195
3001 3005 3015 3017 3030 3039 3046 3054 3061 3068 3076 3083 3090 3097 3103 3110 3116 3122 3126 3132 3137 3143 3148 3152 3156 3160 3164 3167 3170 3173 3176 3179 3180 3183 3185 3186 3187 3188 3189 3190 3190 3190 3191
2993 3001 3009 3012 3021 3030 3040 3047 3055 3063 3066 3075 3082 3089 3095 3102 3108 3114 3120 3123 3132 3137 3141 3146 3151 3155 3158 3162 3165 3168 3170 3173 3175 3178 3180 3182 3183 3183 3184 3185 3185 3185 3185
2988 2994 3000 3010 3003 3025 3032 3040 3048 3056 3061 3055 3071 3079 3087 3094 3100 3107 3113 3119 3124 3130 3135 3140 3144 3148 3152 3155 3158 3161 3164 3167 3169 3172 3174 3176 3177 3178 3179 3179 3179 3179 3179
2983 2989 2994 3002 3001 3006 3021 3031 3041 3045 3052 3054 3060 3070 3078 3084 3095 3100 3106 3112 3118 3123 3128 3133 3137 3142 3145 3148 3150 3154 3157 3160 3163 3166 3168 3170 3171 3172 3172 3172 3173 3173 3173
2980 2984 2989 2996 2996 3005 3005 3021 3030 3033 3043 3049 3049 3060 3064 3078 3089 3095 3098 3105 3110 3115 3120 3125 3129 3133 3136 3139 3143 3146 3149 3153 3155 3158 3161 3162 3163 3165 3165 3166 3167 3166 3166
2978 2981 2985 2991 2997 2993 3001 3004 3014 3026 3032 3039 3045 3056 3060 3069 3077 3084 3091 3097 3102 3107 3111 3116 3120 3123 3127 3130 3134 3137 3141 3144 3147 3150 3152 3154 3156 3157 3158 3158 3159 3159 3158
2978 2980 2982 2986 2988 2992 3000 3000 3010 3014 3025 3033 3039 3046 3054 3062 3068 3074 3083 3088 3093 3098 3102 3106 3110 3114 3118 3121 3125 3128 3132 3135 3138 3141 3144 3146 3148 3149 3149 3150 3150 3151 3150
2977 2979 2981 2983 2987 2992 2995 3001 3006 3011 3016 3024 3029 3036 3045 3052 3056 3063 3072 3079 3085 3089 3093 3097 3101 3105 3108 3111 3116 3119 3122 3125 3129 3132 3134 3136 3138 3139 3140 3141 3141 3142 3142
2977 2978 2980 2983 2986 2989 2993 2996 3000 3005 3009 3015 3022 3027 3035 3043 3045 3053 3062 3068 3075 3079 3084 3088 3092 3096 3099 3102 3105 3109 3112 3115 3119 3122 3124 3126 3127 3129 3131 3132 3131 3132 3133
2974 2976 2978 2981 2984 2987 2989 2991 2995 3000 3006 3012 3015 3021 3028 3034 3038 3043 3052 3057 3062 3068 3073 3078 3082 3086 3089 3092 3096 3099 3102 3105 3109 3112 3114 3116 3118 3120 3122 3122 3122 3122 3124
2972 2974 2975 2977 2980 2983 2986 2988 2991 2996 3000 3004 3009 3015 3021 3025 3030 3035 3040 3046 3052 3057 3063 3068 3072 3076 3079 3082 3086 3089 3093 3096 3099 3102 3104 3107 3109 3111 3112 3112 3113 3113 3115
2970 2971 2972 2973 2975 2978 2982 2984 2987 2991 2994 2998 3003 3007 3013 3018 3022 3027 3030 3036 3042 3047 3052 3057 3062 3065 3069 3072 3076 3080 3083 3086 3090 3092 3095 3097 3099 3101 3102 3102 3103 3104 3106
2967 2967 2968 2971 2973 2974 2976 2979 2982 2985 2988 2991 2995 3000 3004 3008 3012 3017 3022 3027 3032 3036 3041 3046 3050 3055 3058 3062 3065 3068 3072 3075 3079 3081 3084 3086 3089 3092 3093 3093 3094 3095 3095
2965 2965 2966 2968 2968 2969 2970 2973 2975 2978 2981 2984 2988 2991 2995 2999 3003 3007 3011 3016 3020 3025 3030 3034 3040 3044 3047 3051 3053 3057 3061 3064 3067 3069 3072 3075 3077 3079 3081 3082 3084 3084 3083
2963 2964 2965 2965 2965 2966 2966 2967 2969 2972 2974 2977 2980 2983 2986 2990 2994 2998 3002 3005 3009 3014 3019 3024 3028 3032 3036 3038 3040 3045 3049 3052 3055 3057 3060 3063 3066 3068 3069 3072 3074 3073 3074
2961 2961 2961 2962 2962 2963 2963 2963 2964 2966 2968 2970 2973 2975 2978 2980 2984 2988 2991 2995 2998 3003 3007 3011 3015 3020 3024 3027 3029 3033 3038 3040 3043 3045 3049 3051 3053 3055 3057 3059 3062 3063 3064
2959 2959 2958 2958 2958 2958 2959 2960 2960 2961 2962 2964 2965 2967 2969 2971 2974 2978 2981 2984 2987 2990 2994 2998 3002 3007 3011 3014 3018 3021 3024 3028 3032 3033 3035 3038 3040 3042 3045 3046 3049 3051 3052